Regional Weather Roundup
Issued by NWS

Home | Current Version | Previous Version | Graphics & Text | Print | Product List | Glossary Off
Versions: 1 2 3 4 5 6 7 8 9 10 11 12 13 14 15 16 17 18 19 20 21 22 23 24 25 26 27 28 29 30 31 32 33 34 35 36 37 38 39 40 41 42 43 44 45 46 47 48 49 50

406
ASUS43 KDMX 281908
RWRIA

WEATHER ROUNDUP FOR IOWA
NATIONAL WEATHER SERVICE DES MOINES IA
200 PM CDT THU JUL 28 2016

NOTE: "FAIR" INDICATES FEW OR NO CLOUDS BELOW 12,000 FEET WITH NO
SIGNIFICANT WEATHER AND/OR OBSTRUCTIONS TO VISIBILITY.

* - THESE STATIONS ARE NOT NWS STATIONS...THUS NOT UNDER NWS
QUALITY CONTROL.  THEY ALSO DO NOT REPORT WEATHER SUCH
AS PRECIPITATION OR FOG.

IAZ001>003-012>014-020>022-031>034-043>046-282000-
   NORTHWEST IOWA

CITY           SKY/WX    TMP DP  RH WIND       PRES   REMARKS
CARROLL *      MOSUNNY   77  68  73 N13       30.00F
CHEROKEE *     PTSUNNY   76  65  69 N5        30.03F
DENISON *      MOSUNNY   79  64  61 NW10G16   30.00S HX  81
LE MARS *      MOSUNNY   77  63  61 N10       30.05S
SHELDON *      MOSUNNY   75  64  69 NE12      30.03F
SIOUX CITY     PTSUNNY   81  61  50 NW9       30.02F HX  82
SPENCER        CLOUDY    73  61  65 N12       30.05R
STORM LAKE *     N/A     73  63  68 N9        30.05R
$$

IAZ055>058-069>071-079>083-090>094-282000-
   SOUTHWEST IOWA

CITY           SKY/WX    TMP DP  RH WIND       PRES   REMARKS
ATLANTIC *     MOSUNNY   79  66  65 N9G16     30.00F HX  81
CLARINDA *       N/A     82  68  61 MISG      30.01  HX  85
COUNCIL BLFS * PTSUNNY   79  66  65 N9        30.02  HX  81
CRESTON *      PTSUNNY   81  66  61 N7G18     30.00  HX  83
HARLAN  *      MOSUNNY   79  66  65 N10       30.04F HX  81
LAMONI         SUNNY     83  65  54 N16       29.97F HX  85
RED OAK *      MOSUNNY   82  66  57 N9G16     30.00  HX  85
SHENANDOAH *   MOSUNNY   81  68  65 N9        30.00F HX  83
$$

IAZ047>049-059>061-072>074-084-282000-
   CENTRAL IOWA

CITY           SKY/WX    TMP DP  RH WIND       PRES   REMARKS
AMES           CLOUDY    77  67  71 NW10      29.98F
ANKENY *         N/A    N/A N/A N/A MISG        N/A
BOONE *        CLOUDY    73  64  73 N13       29.99S
CHARITON *       N/A    N/A N/A N/A MISG        N/A
DES MOINES     MOSUNNY   80  65  59 NW9       29.97F HX  82
KNOXVILLE *    PTSUNNY   77  64  65 NW12G18   29.96S
MARSHALLTOWN   PTSUNNY   79  66  64 N14       29.95F HX  81
NEWTON *       MOSUNNY   79  66  65 NW8G15    29.95F HX  81
PELLA *        MOSUNNY   78  65  64 NW10      29.96F HX  80
PERRY *        CLOUDY    74  67  78 N8        30.01S
$$

IAZ004>006-015-016-023>025-035-036-282000-
   NORTH CENTRAL IOWA

CITY           SKY/WX    TMP DP  RH WIND       PRES   REMARKS
ALGONA *       CLOUDY    70  63  78 N9G15     30.03R
ESTHERVILLE    CLOUDY    69  62  78 NW13      30.05R
FORT DODGE *   CLOUDY    72  64  78 NW7       30.02S
MASON CITY     CLOUDY    74  64  71 N15       30.00F
FOREST CITY *  CLOUDY    72  63  73 NW9       30.00F
IOWA FALLS *   CLOUDY    78  65  65 N9        29.98F
$$

IAZ007>011-017>019-026>030-037>042-050>054-066-282000-
   NORTHEAST IOWA

CITY           SKY/WX    TMP DP  RH WIND       PRES   REMARKS
CEDAR RAPIDS   PTSUNNY   79  69  71 NW10      29.91F HX  81
CHARLES CITY * LGT RAIN  70  68  94 N9G22     29.97F
CLINTON *      MOSUNNY   81  72  74 W9        29.87F HX  85
DECORAH *      CLOUDY    73  68  83 N8G15     29.94R
DUBUQUE        PTSUNNY   81  68  64 NW12      29.90F HX  84
MONTICELLO *   MOSUNNY   81  68  65 W10       29.90F HX  83
OELWEIN *      CLOUDY    73  68  83 NW12      29.94F
WATERLOO       CLOUDY    76  64  66 N15       29.93F
$$

IAZ064-065-067-068-078-282000-
   EAST CENTRAL IOWA

CITY           SKY/WX    TMP DP  RH WIND       PRES   REMARKS
DAVENPORT      SUNNY     80  69  69 W14       29.89F HX  83
IOWA CITY      MOSUNNY   80  66  62 NW13      29.93F HX  82
MT. PLEASANT * PTSUNNY   81  69  66 NW10G18   29.92S HX  84
MUSCATINE *    MOSUNNY   81  66  61 NW10      29.91F HX  83
QUAD CITIES    MOSUNNY   85  68  56 W14       29.86F HX  88
$$

IAZ062-063-075>077-085>089-095>099-282000-
   SOUTHEAST IOWA

CITY           SKY/WX    TMP DP  RH WIND       PRES   REMARKS
BURLINGTON     CLOUDY    83  72  69 N14       29.89F HX  88
FAIRFIELD *    MOSUNNY   77  66  69 NW14G20   29.93
KEOKUK *       PTSUNNY   82  72  69 NW7       29.90F HX  87
OTTUMWA        MOSUNNY   78  65  63 NW17      29.93F HX  80
WASHINGTON *   PTSUNNY   79  68  69 NW13      29.94F HX  81
$$

ABBREVIATIONS USED IN REMARKS
   TC - TEMPERATURES IN CELSIUS
  WCI - WIND CHILL INDEX
   HX - HEAT INDEX
  VSB - VISIBILITY
$$





USA.gov is the U.S. government's official web portal to all federal, state and local government web resources and services.